カタログに戻る

ARIANE 1 DEB

運用中SSO
NORAD 17702·DEBRIS·🇫🇷 France

打ち上げ Feb 22, 1986 から Guiana Space Centre

Loading…

次のパス (今後24時間)

TLE

最新Source: Space-Track

元期: Sep 14, 2026, 00:51 UTC

1 17702U 86019LU  26257.03588877  .00000883  00000-0  20905-3 0  9997
2 17702  98.0326 276.9492 0005502 163.4327 196.7053 14.56328255 91961

AllMySatでARIANE 1 DEBをリアルタイム追跡

Download on the App Store